Time,TemperatureF,DewpointF,PressureIn,WindDirection,WindDirectionDegrees,WindSpeedMPH,WindSpeedGustMPH,Humidity,HourlyPrecipIn,Conditions,Clouds,dailyrainin,SoftwareType,DateUTC
2013-02-15 00:02:00,34.0,24.0,-100.00,WNW,290,0.0,1.0,67,0.00,,,-99.99,,2013-02-15 05:02:00,
2013-02-15 00:12:00,34.0,25.0,-100.00,North,10,0.0,0.0,68,0.00,,,-99.99,,2013-02-15 05:12:00,
2013-02-15 00:22:00,34.0,25.0,-100.00,NW,325,1.0,1.0,68,0.00,,,-99.99,,2013-02-15 05:22:00,
2013-02-15 00:32:00,34.0,25.0,-100.00,NW,325,1.0,1.0,68,0.00,,,-99.99,,2013-02-15 05:32:00,
2013-02-15 00:42:00,36.0,26.0,-100.00,WSW,250,1.0,2.0,67,0.00,,,-99.99,,2013-02-15 05:42:00,
2013-02-15 00:52:00,34.0,25.0,-100.00,South,180,1.0,2.0,67,0.00,,,-99.99,,2013-02-15 05:52:00,
2013-02-15 01:02:00,34.0,25.0,-100.00,South,180,1.0,2.0,67,0.00,,,-99.99,,2013-02-15 06:02:00,
2013-02-15 01:11:00,34.0,24.0,-100.00,North,5,0.0,0.0,69,0.00,,,-99.99,,2013-02-15 06:11:00,
2013-02-15 01:22:00,34.0,24.0,-100.00,North,5,0.0,0.0,69,0.00,,,-99.99,,2013-02-15 06:22:00,
2013-02-15 01:32:00,33.0,24.0,-100.00,West,270,1.0,1.0,71,0.00,,,-99.99,,2013-02-15 06:32:00,
2013-02-15 01:42:00,34.0,26.0,-100.00,West,275,2.0,3.0,73,0.00,,,-99.99,,2013-02-15 06:42:00,
2013-02-15 01:52:00,34.0,26.0,-100.00,WSW,245,0.0,0.0,72,0.00,,,-99.99,,2013-02-15 06:52:00,
2013-02-15 02:01:00,34.0,26.0,-100.00,WSW,245,0.0,0.0,72,0.00,,,-99.99,,2013-02-15 07:01:00,
2013-02-15 02:11:00,34.0,26.0,-100.00,WSW,255,1.0,2.0,73,0.00,,,-99.99,,2013-02-15 07:11:00,
2013-02-15 02:21:00,34.0,26.0,-100.00,WSW,255,1.0,2.0,73,0.00,,,-99.99,,2013-02-15 07:21:00,
2013-02-15 02:32:00,34.0,27.0,-100.00,NNW,345,0.0,1.0,73,0.00,,,-99.99,,2013-02-15 07:32:00,
2013-02-15 02:42:00,34.0,26.0,-100.00,NE,50,0.0,0.0,73,0.00,,,-99.99,,2013-02-15 07:42:00,
2013-02-15 02:52:00,34.0,26.0,-100.00,NE,50,0.0,0.0,73,0.00,,,-99.99,,2013-02-15 07:52:00,
2013-02-15 03:01:00,33.0,26.0,-100.00,NE,55,0.0,0.0,74,0.00,,,-99.99,,2013-02-15 08:01:00,
2013-02-15 03:11:00,34.0,26.0,-100.00,SSE,165,0.0,0.0,75,0.00,,,-99.99,,2013-02-15 08:11:00,
2013-02-15 03:21:00,34.0,27.0,-100.00,NW,310,0.0,0.0,76,0.00,,,-99.99,,2013-02-15 08:21:00,
2013-02-15 03:32:00,34.0,27.0,-100.00,NW,310,0.0,0.0,76,0.00,,,-99.99,,2013-02-15 08:32:00,
2013-02-15 03:42:00,33.0,26.0,-100.00,South,190,0.0,0.0,76,0.00,,,-99.99,,2013-02-15 08:42:00,
2013-02-15 03:52:00,33.0,26.0,-100.00,South,190,0.0,0.0,76,0.00,,,-99.99,,2013-02-15 08:52:00,
2013-02-15 04:02:00,33.0,26.0,-100.00,South,170,0.0,0.0,76,0.00,,,-99.99,,2013-02-15 09:02:00,
2013-02-15 04:12:00,33.0,26.0,-100.00,NW,305,0.0,0.0,77,0.00,,,-99.99,,2013-02-15 09:12:00,
2013-02-15 04:21:00,33.0,26.0,-100.00,NW,305,0.0,0.0,77,0.00,,,-99.99,,2013-02-15 09:21:00,
2013-02-15 04:32:00,33.0,27.0,-100.00,SW,215,0.0,0.0,78,0.00,,,-99.99,,2013-02-15 09:32:00,
2013-02-15 04:42:00,32.0,26.0,-100.00,NNE,20,0.0,0.0,78,0.00,,,-99.99,,2013-02-15 09:42:00,
2013-02-15 04:52:00,32.0,26.0,-100.00,NNE,20,0.0,0.0,78,0.00,,,-99.99,,2013-02-15 09:52:00,
2013-02-15 05:01:00,32.0,27.0,-100.00,West,280,1.0,2.0,80,0.00,,,-99.99,,2013-02-15 10:01:00,
2013-02-15 05:11:00,33.0,28.0,-100.00,West,270,2.0,3.0,81,0.00,,,-99.99,,2013-02-15 10:11:00,
2013-02-15 05:21:00,33.0,28.0,-100.00,West,270,2.0,3.0,81,0.00,,,-99.99,,2013-02-15 10:21:00,
2013-02-15 05:32:00,34.0,29.0,-100.00,West,270,2.0,2.0,81,0.00,,,-99.99,,2013-02-15 10:32:00,
2013-02-15 05:42:00,35.0,29.0,-100.00,West,260,2.0,2.0,79,0.00,,,-99.99,,2013-02-15 10:42:00,
2013-02-15 05:51:00,35.0,29.0,-100.00,WSW,250,1.0,2.0,79,0.00,,,-99.99,,2013-02-15 10:51:00,
2013-02-15 06:01:00,35.0,29.0,-100.00,WSW,250,1.0,2.0,79,0.00,,,-99.99,,2013-02-15 11:01:00,
2013-02-15 06:11:00,35.0,29.0,-100.00,WSW,250,2.0,2.0,78,0.00,,,-99.99,,2013-02-15 11:11:00,
2013-02-15 06:23:00,35.0,29.0,-100.00,WSW,250,2.0,2.0,78,0.00,,,-99.99,,2013-02-15 11:23:00,
2013-02-15 06:32:00,35.0,29.0,-100.00,SSW,195,1.0,1.0,78,0.00,,,-99.99,,2013-02-15 11:32:00,
2013-02-15 06:42:00,36.0,30.0,-100.00,South,175,1.0,2.0,79,0.00,,,-99.99,,2013-02-15 11:42:00,
2013-02-15 06:52:00,36.0,30.0,-100.00,SSE,160,2.0,4.0,79,0.00,,,-99.99,,2013-02-15 11:52:00,
2013-02-15 07:02:00,36.0,30.0,-100.00,SSE,160,2.0,4.0,79,0.00,,,-99.99,,2013-02-15 12:02:00,
2013-02-15 07:11:00,37.0,31.0,-100.00,SW,220,1.0,1.0,79,0.00,,,-99.99,,2013-02-15 12:11:00,
2013-02-15 07:21:00,37.0,31.0,-100.00,SW,220,1.0,1.0,79,0.00,,,-99.99,,2013-02-15 12:21:00,
2013-02-15 07:32:00,37.0,31.0,-100.00,South,180,2.0,2.0,79,0.00,,,-99.99,,2013-02-15 12:32:00,
2013-02-15 07:42:00,37.0,31.0,-100.00,SSW,205,2.0,2.0,79,0.00,,,-99.99,,2013-02-15 12:42:00,
2013-02-15 07:52:00,37.0,31.0,-100.00,SSW,205,2.0,2.0,79,0.00,,,-99.99,,2013-02-15 12:52:00,
2013-02-15 08:02:00,37.0,31.0,-100.00,SSW,200,1.0,2.0,78,0.00,,,-99.99,,2013-02-15 13:02:00,
2013-02-15 08:11:00,38.0,31.0,-100.00,SSW,195,1.0,2.0,77,0.00,,,-99.99,,2013-02-15 13:11:00,
2013-02-15 08:22:00,38.0,31.0,-100.00,South,185,2.0,3.0,77,0.00,,,-99.99,,2013-02-15 13:22:00,
2013-02-15 08:32:00,38.0,31.0,-100.00,South,185,2.0,3.0,77,0.00,,,-99.99,,2013-02-15 13:32:00,
2013-02-15 08:42:00,38.0,31.0,-100.00,SSW,210,0.0,1.0,77,0.00,,,-99.99,,2013-02-15 13:42:00,
2013-02-15 08:52:00,38.0,31.0,-100.00,SSW,210,0.0,1.0,77,0.00,,,-99.99,,2013-02-15 13:52:00,
2013-02-15 09:01:00,40.0,33.0,-100.00,SSE,155,3.0,4.0,76,0.00,,,-99.99,,2013-02-15 14:01:00,
2013-02-15 09:12:00,42.0,32.0,-100.00,South,190,1.0,3.0,70,0.00,,,-99.99,,2013-02-15 14:12:00,
2013-02-15 09:21:00,41.0,31.0,-100.00,South,180,2.0,4.0,67,0.00,,,-99.99,,2013-02-15 14:21:00,
2013-02-15 09:32:00,41.0,31.0,-100.00,South,180,2.0,4.0,67,0.00,,,-99.99,,2013-02-15 14:32:00,
2013-02-15 09:42:00,42.0,31.0,-100.00,SE,135,6.0,7.0,64,0.00,,,-99.99,,2013-02-15 14:42:00,
2013-02-15 09:52:00,42.0,31.0,-100.00,SE,135,6.0,7.0,64,0.00,,,-99.99,,2013-02-15 14:52:00,
2013-02-15 10:02:00,42.0,29.0,-100.00,West,265,2.0,4.0,59,0.00,,,-99.99,,2013-02-15 15:02:00,
2013-02-15 10:11:00,43.0,29.0,-100.00,SE,145,3.0,5.0,58,0.00,,,-99.99,,2013-02-15 15:11:00,
2013-02-15 10:21:00,43.0,29.0,-100.00,SE,145,3.0,5.0,58,0.00,,,-99.99,,2013-02-15 15:21:00,
2013-02-15 10:32:00,44.0,29.0,-100.00,East,80,1.0,4.0,55,0.00,,,-99.99,,2013-02-15 15:32:00,
2013-02-15 10:42:00,45.0,28.0,-100.00,ENE,60,0.0,1.0,52,0.00,,,-99.99,,2013-02-15 15:42:00,
2013-02-15 10:52:00,45.0,28.0,-100.00,ENE,60,0.0,1.0,52,0.00,,,-99.99,,2013-02-15 15:52:00,
2013-02-15 11:02:00,46.0,28.0,-100.00,SSW,200,1.0,2.0,51,0.00,,,-99.99,,2013-02-15 16:02:00,
2013-02-15 11:11:00,44.0,27.0,-100.00,West,265,2.0,4.0,51,0.00,,,-99.99,,2013-02-15 16:11:00,
2013-02-15 11:22:00,44.0,27.0,-100.00,West,265,2.0,4.0,51,0.00,,,-99.99,,2013-02-15 16:22:00,
2013-02-15 11:32:00,46.0,28.0,-100.00,South,180,3.0,5.0,50,0.00,,,-99.99,,2013-02-15 16:32:00,
2013-02-15 11:42:00,47.0,27.0,-100.00,NW,320,1.0,2.0,46,0.00,,,-99.99,,2013-02-15 16:42:00,
2013-02-15 11:52:00,47.0,27.0,-100.00,NW,320,1.0,2.0,46,0.00,,,-99.99,,2013-02-15 16:52:00,
2013-02-15 12:01:00,48.0,27.0,-100.00,South,190,3.0,5.0,45,0.00,,,-99.99,,2013-02-15 17:01:00,
2013-02-15 12:11:00,47.0,25.0,-100.00,West,265,3.0,10.0,43,0.00,,,-99.99,,2013-02-15 17:11:00,
2013-02-15 12:21:00,47.0,25.0,-100.00,West,265,3.0,10.0,43,0.00,,,-99.99,,2013-02-15 17:21:00,
2013-02-15 12:32:00,47.0,-5.0,-100.00,West,275,12.0,14.0,11,0.00,,,-99.99,,2013-02-15 17:32:00,
2013-02-15 12:42:00,48.0,22.0,-100.00,West,265,9.0,14.0,37,0.00,,,-99.99,,2013-02-15 17:42:00,
2013-02-15 12:52:00,46.0,-6.0,-100.00,NW,305,7.0,11.0,11,0.00,,,-99.99,,2013-02-15 17:52:00,
2013-02-15 13:02:00,46.0,-6.0,-100.00,NW,305,7.0,11.0,11,0.00,,,-99.99,,2013-02-15 18:02:00,
2013-02-15 13:11:00,46.0,20.0,-100.00,West,270,4.0,7.0,35,0.00,,,-99.99,,2013-02-15 18:11:00,
2013-02-15 13:21:00,46.0,20.0,-100.00,West,270,4.0,7.0,35,0.00,,,-99.99,,2013-02-15 18:21:00,
2013-02-15 13:32:00,45.0,19.0,-100.00,West,275,10.0,13.0,35,0.00,,,-99.99,,2013-02-15 18:32:00,
2013-02-15 13:42:00,44.0,18.0,-100.00,West,270,9.0,11.0,35,0.00,,,-99.99,,2013-02-15 18:42:00,
2013-02-15 13:52:00,44.0,18.0,-100.00,West,270,9.0,11.0,35,0.00,,,-99.99,,2013-02-15 18:52:00,
2013-02-15 14:02:00,44.0,18.0,-100.00,WNW,290,9.0,12.0,35,0.00,,,-99.99,,2013-02-15 19:02:00,
2013-02-15 14:11:00,44.0,18.0,-100.00,NW,305,10.0,14.0,36,0.00,,,-99.99,,2013-02-15 19:11:00,
2013-02-15 14:22:00,44.0,18.0,-100.00,NW,305,10.0,14.0,36,0.00,,,-99.99,,2013-02-15 19:22:00,
2013-02-15 14:32:00,43.0,18.0,-100.00,WSW,255,5.0,9.0,36,0.00,,,-99.99,,2013-02-15 19:32:00,
2013-02-15 14:42:00,42.0,19.0,-100.00,West,270,7.0,12.0,39,0.00,,,-99.99,,2013-02-15 19:42:00,
2013-02-15 14:52:00,42.0,19.0,-100.00,West,270,7.0,12.0,39,0.00,,,-99.99,,2013-02-15 19:52:00,
2013-02-15 15:01:00,42.0,21.0,-100.00,WNW,290,7.0,11.0,43,0.00,,,-99.99,,2013-02-15 20:01:00,
2013-02-15 15:11:00,40.0,23.0,-100.00,SSW,200,1.0,2.0,50,0.00,,,-99.99,,2013-02-15 20:11:00,
2013-02-15 15:21:00,40.0,23.0,-100.00,SSW,200,1.0,2.0,50,0.00,,,-99.99,,2013-02-15 20:21:00,
2013-02-15 15:32:00,40.0,26.0,-100.00,WNW,285,6.0,8.0,59,0.00,,,-99.99,,2013-02-15 20:32:00,
2013-02-15 15:42:00,40.0,27.0,-100.00,West,260,4.0,5.0,61,0.00,,,-99.99,,2013-02-15 20:42:00,
2013-02-15 15:52:00,39.0,29.0,-100.00,SW,230,1.0,3.0,66,0.00,,,-99.99,,2013-02-15 20:52:00,
2013-02-15 16:02:00,39.0,29.0,-100.00,SW,230,1.0,3.0,66,0.00,,,-99.99,,2013-02-15 21:02:00,
2013-02-15 16:11:00,40.0,29.0,-100.00,ENE,70,1.0,1.0,66,0.00,,,-99.99,,2013-02-15 21:11:00,
2013-02-15 16:21:00,39.0,29.0,-100.00,North,350,1.0,1.0,67,0.00,,,-99.99,,2013-02-15 21:21:00,
2013-02-15 16:32:00,39.0,29.0,-100.00,North,350,1.0,1.0,67,0.00,,,-99.99,,2013-02-15 21:32:00,
2013-02-15 16:42:00,39.0,30.0,-100.00,WNW,290,5.0,6.0,69,0.00,,,-99.99,,2013-02-15 21:42:00,
2013-02-15 16:52:00,39.0,30.0,-100.00,WNW,290,5.0,6.0,69,0.00,,,-99.99,,2013-02-15 21:52:00,
2013-02-15 17:02:00,39.0,31.0,-100.00,WNW,300,1.0,2.0,73,0.00,,,-99.99,,2013-02-15 22:02:00,
2013-02-15 17:11:00,39.0,32.0,-100.00,West,265,3.0,5.0,76,0.00,,,-99.99,,2013-02-15 22:11:00,
2013-02-15 17:22:00,38.0,31.0,-100.00,NNW,340,1.0,2.0,76,0.00,,,-99.99,,2013-02-15 22:22:00,
2013-02-15 17:32:00,38.0,31.0,-100.00,NNW,340,1.0,2.0,76,0.00,,,-99.99,,2013-02-15 22:32:00,
2013-02-15 17:41:00,38.0,32.0,-100.00,WNW,285,0.0,1.0,77,0.00,,,-99.99,,2013-02-15 22:41:00,
2013-02-15 17:51:00,38.0,32.0,-100.00,WNW,285,0.0,1.0,77,0.00,,,-99.99,,2013-02-15 22:51:00,
2013-02-15 18:02:00,38.0,31.0,-100.00,East,95,1.0,1.0,76,0.00,,,-99.99,,2013-02-15 23:02:00,
2013-02-15 18:11:00,38.0,31.0,-100.00,North,0,1.0,2.0,76,0.00,,,-99.99,,2013-02-15 23:11:00,
2013-02-15 18:21:00,38.0,31.0,-100.00,WSW,245,1.0,2.0,76,0.00,,,-99.99,,2013-02-15 23:21:00,
2013-02-15 18:32:00,38.0,31.0,-100.00,WSW,245,1.0,2.0,76,0.00,,,-99.99,,2013-02-15 23:32:00,
2013-02-15 18:42:00,38.0,31.0,-100.00,SSW,195,0.0,0.0,76,0.00,,,-99.99,,2013-02-15 23:42:00,
2013-02-15 18:52:00,38.0,31.0,-100.00,SSW,195,0.0,0.0,76,0.00,,,-99.99,,2013-02-15 23:52:00,
2013-02-15 19:02:00,38.0,30.0,-100.00,West,265,2.0,4.0,75,0.00,,,-99.99,,2013-02-16 00:02:00,
2013-02-15 19:11:00,38.0,29.0,-100.00,West,265,1.0,3.0,72,0.00,,,-99.99,,2013-02-16 00:11:00,
2013-02-15 19:21:00,38.0,29.0,-100.00,West,265,1.0,3.0,72,0.00,,,-99.99,,2013-02-16 00:21:00,
2013-02-15 19:32:00,38.0,29.0,-100.00,WNW,285,2.0,3.0,71,0.00,,,-99.99,,2013-02-16 00:32:00,
2013-02-15 19:41:00,37.0,29.0,-100.00,West,260,4.0,7.0,71,0.00,,,-99.99,,2013-02-16 00:41:00,
2013-02-15 19:51:00,37.0,29.0,-100.00,West,260,4.0,7.0,71,0.00,,,-99.99,,2013-02-16 00:51:00,
2013-02-15 20:02:00,37.0,28.0,-100.00,WNW,285,7.0,10.0,70,0.00,,,-99.99,,2013-02-16 01:02:00,
2013-02-15 20:11:00,37.0,27.0,-100.00,West,270,3.0,5.0,68,0.00,,,-99.99,,2013-02-16 01:11:00,
2013-02-15 20:21:00,37.0,27.0,-100.00,West,270,3.0,5.0,68,0.00,,,-99.99,,2013-02-16 01:21:00,
2013-02-15 20:32:00,37.0,27.0,-100.00,West,270,7.0,12.0,67,0.00,,,-99.99,,2013-02-16 01:32:00,
2013-02-15 20:42:00,36.0,26.0,-100.00,WNW,285,5.0,8.0,65,0.00,,,-99.99,,2013-02-16 01:42:00,
2013-02-15 20:52:00,36.0,26.0,-100.00,WNW,285,5.0,8.0,65,0.00,,,-99.99,,2013-02-16 01:52:00,
2013-02-15 21:01:00,36.0,26.0,-100.00,West,270,7.0,9.0,65,0.00,,,-99.99,,2013-02-16 02:01:00,
2013-02-15 21:11:00,36.0,25.0,-100.00,West,270,6.0,11.0,65,0.00,,,-99.99,,2013-02-16 02:11:00,
2013-02-15 21:21:00,36.0,25.0,-100.00,West,270,6.0,11.0,65,0.00,,,-99.99,,2013-02-16 02:21:00,
2013-02-15 21:32:00,36.0,24.0,-100.00,West,270,8.0,10.0,64,0.00,,,-99.99,,2013-02-16 02:32:00,
2013-02-15 21:42:00,36.0,24.0,-100.00,WNW,285,7.0,9.0,64,0.00,,,-99.99,,2013-02-16 02:42:00,
2013-02-15 21:52:00,35.0,25.0,-100.00,West,280,2.0,5.0,66,0.00,,,-99.99,,2013-02-16 02:52:00,
2013-02-15 22:02:00,35.0,25.0,-100.00,West,280,2.0,5.0,66,0.00,,,-99.99,,2013-02-16 03:02:00,
2013-02-15 22:11:00,35.0,25.0,-100.00,NW,315,4.0,5.0,66,0.00,,,-99.99,,2013-02-16 03:11:00,
2013-02-15 22:21:00,35.0,25.0,-100.00,NW,315,4.0,5.0,66,0.00,,,-99.99,,2013-02-16 03:21:00,
2013-02-15 22:32:00,35.0,25.0,-100.00,NW,310,2.0,3.0,66,0.00,,,-99.99,,2013-02-16 03:32:00,
2013-02-15 22:42:00,35.0,25.0,-100.00,WNW,295,2.0,2.0,66,0.00,,,-99.99,,2013-02-16 03:42:00,
2013-02-15 22:52:00,35.0,25.0,-100.00,WNW,295,2.0,2.0,66,0.00,,,-99.99,,2013-02-16 03:52:00,
2013-02-15 23:01:00,35.0,25.0,-100.00,West,265,0.0,0.0,67,0.00,,,-99.99,,2013-02-16 04:01:00,
2013-02-15 23:11:00,35.0,25.0,-100.00,NE,45,0.0,0.0,67,0.00,,,-99.99,,2013-02-16 04:11:00,
2013-02-15 23:21:00,34.0,25.0,-100.00,WNW,295,1.0,1.0,69,0.00,,,-99.99,,2013-02-16 04:21:00,
2013-02-15 23:32:00,34.0,25.0,-100.00,WNW,295,1.0,1.0,69,0.00,,,-99.99,,2013-02-16 04:32:00,
2013-02-15 23:42:00,34.0,25.0,-100.00,SSW,210,0.0,0.0,69,0.00,,,-99.99,,2013-02-16 04:42:00,
2013-02-15 23:51:00,34.0,25.0,-100.00,WSW,255,0.0,0.0,70,0.00,,,-99.99,,2013-02-16 04:51:00,